Home > Weather > Nordkirchen > Past weeks

Flag for Germany Past Weather in Nordkirchen, North Rhine-Westphalia, Germany — Yesterday and Last 2 Weeks

Now
59 °F

Sprinkles. Partly sunny.


Feels Like: 60 °F
Forecast: 61 / 72 °F
Wind: 3 mph from North

Location: Dortmund / Wickede

Current Time: Jun 1, 2016 at 7:30:55 AM

Latest Report: Jun 1, 2016 at 6:50 AM


Visibility: N/A

Pressure: 29.92 "Hg

Humidity: 82%

Dew Point: 54 °F

Location of NordkirchenLocation

Past Weather in Nordkirchen — Graph

°F

Nordkirchen Temperature Yesterday

Maximum temperature yesterday: 70 °F (at 4:20 PM)
Minimum temperature yesterday: 59 °F (at 5:20 AM)
Average temperature yesterday: 65 °F

High & Low Weather Summary for the Past Weeks

 TemperatureHumidityPressure
High73 °F (May 21, 5:50 PM)100% (May 30, 11:20 AM)30.07 "Hg (May 30, 11:20 AM)
Low45 °F (May 17, 6:20 AM)37% (May 18, 1:50 PM)29.59 "Hg (May 30, 3:50 PM)
Average60 °F68%29.90 "Hg
* Reported May 17 6:20 AM — Jun 1 6:20 AM, Nordkirchen, Weather by CustomWeather, © 2016

Note: Actual official high and low records may vary slightly from our data, if they occured in-between our weather recording intervals... More about our weather records

Advertising

Nordkirchen Weather History for the Previous 24 Hours

Scroll right to see more
 ConditionsComfort  
Time TempWeatherWind HumidityBarometerVisibility
6:20 AM
Wed, Jun 1
59 °FSprinkles. Partly sunny.7 mph82%29.92 "HgN/A
5:50 AM59 °FPassing clouds.7 mph82%29.92 "HgN/A
5:20 AM59 °FPassing clouds.8 mph77%29.92 "HgN/A
9:50 PM
Tue, May 31
61 °FCool.3 mph72%29.92 "HgN/A
9:20 PM63 °FSunny.No wind73%29.92 "Hg10 mi
8:50 PM66 °FSunny.5 mph64%29.89 "Hg10 mi
8:20 PM68 °FSunny.3 mph56%29.89 "Hg10 mi
7:50 PM68 °FPassing clouds.5 mph56%29.89 "HgN/A
7:20 PM70 °FPassing clouds.6 mph53%29.89 "HgN/A
6:50 PM70 °FPassing clouds.5 mph50%29.86 "HgN/A
6:20 PM70 °FSunny.3 mph50%29.86 "Hg10 mi
5:50 PM70 °FSunny.2 mph53%29.86 "Hg10 mi
5:20 PM70 °FPassing clouds.5 mph46%29.86 "HgN/A
4:50 PM68 °FPassing clouds.5 mph53%29.86 "HgN/A
4:20 PM70 °FBroken clouds.2 mph50%29.86 "HgN/A
3:50 PM68 °FPartly sunny.5 mph49%29.86 "HgN/A
3:20 PM68 °FPassing clouds.7 mph53%29.86 "HgN/A
2:50 PM68 °FPartly sunny.6 mph53%29.86 "HgN/A
2:20 PM66 °FScattered clouds.8 mph60%29.86 "HgN/A
1:50 PM66 °FScattered clouds.7 mph52%29.86 "HgN/A
1:20 PM66 °FPartly sunny.6 mph52%29.83 "HgN/A
12:50 PM66 °FPartly sunny.9 mph52%29.83 "HgN/A
12:20 PM68 °FScattered clouds.9 mph53%29.83 "HgN/A
11:50 AM66 °FScattered clouds.10 mph52%29.83 "HgN/A
11:20 AM63 °FScattered clouds.10 mph59%29.80 "HgN/A
10:50 AM64 °FScattered clouds.12 mph60%29.80 "HgN/A
9:20 AM64 °FScattered clouds.10 mph60%29.80 "HgN/A
8:50 AM61 °FScattered clouds.10 mph63%29.77 "HgN/A
8:20 AM61 °FScattered clouds.9 mph68%29.77 "HgN/A
7:50 AM61 °FScattered clouds.7 mph68%29.77 "HgN/A
7:20 AM61 °FScattered clouds.7 mph68%29.74 "HgN/A
Weather by CustomWeather, © 2016

See weather overviewHow to use our weather pages